When you browse on this site, cookies collect data to enhance your experience and personalize the content and advertising you see.
Visit our Privacy Policy to learn more. By continuing to use the site, you agree to this use of cookies and data.
  • In Spain
  • List of Countries
  • For 7 days
  • Water Temperature
  • Weather Map
  • Weather Widgets
  • user-avatar
    Login

    Hourly Weather London

    Today, 17 September, Tuesday

    Time Temperature Precipitation Wind Pressure Humidity
    00:00 +15°C° 0 mm 2 mps 766 mmHg 78%
    01:00 +14°C° 0 mm 2 mps 766 mmHg 79%
    02:00 +14°C° 0 mm 2 mps 766 mmHg 80%
    03:00 +13°C° 0 mm 2 mps 765 mmHg 81%
    04:00 +12°C° 0 mm 2 mps 766 mmHg 82%
    05:00 +12°C° 0 mm 2 mps 766 mmHg 84%
    06:00 +10°C° 0 mm 2 mps 766 mmHg 85%
    07:00 +12°C° 0 mm 3 mps 767 mmHg 78%
    08:00 +13°C° 0 mm 3 mps 767 mmHg 71%
    09:00 +14°C° 0 mm 3 mps 767 mmHg 63%
    10:00 +16°C° 0 mm 3 mps 767 mmHg 59%
    11:00 +17°C° 0 mm 4 mps 767 mmHg 54%
    12:00 +18°C° 0 mm 4 mps 767 mmHg 50%
    13:00 +18°C° 0 mm 4 mps 767 mmHg 49%
    14:00 +19°C° 0 mm 4 mps 767 mmHg 48%
    15:00 +19°C° 0 mm 4 mps 767 mmHg 48%
    16:00 +18°C° 0 mm 4 mps 767 mmHg 51%
    17:00 +15°C° 0 mm 4 mps 768 mmHg 55%
    18:00 +14°C° 0 mm 3 mps 768 mmHg 59%
    19:00 +13°C° 0 mm 3 mps 768 mmHg 62%
    20:00 +12°C° 0 mm 3 mps 769 mmHg 65%
    21:00 +11°C° 0 mm 3 mps 769 mmHg 67%
    22:00 +11°C° 0 mm 3 mps 769 mmHg 69%
    23:00 +10°C° 0 mm 3 mps 769 mmHg 70%

    Tomorrow, 18 September, Wednesday

    Time Temperature Precipitation Wind Pressure Humidity
    00:00 +10°C° 0 mm 3 mps 770 mmHg 71%
    01:00 +9°C° 0 mm 2 mps 770 mmHg 73%
    02:00 +9°C° 0 mm 2 mps 770 mmHg 74%
    03:00 +9°C° 0 mm 2 mps 770 mmHg 76%
    04:00 +9°C° 0 mm 2 mps 770 mmHg 77%
    05:00 +8°C° 0 mm 2 mps 770 mmHg 77%
    06:00 +8°C° 0 mm 2 mps 770 mmHg 78%
    07:00 +10°C° 0 mm 2 mps 771 mmHg 72%
    08:00 +12°C° 0 mm 2 mps 771 mmHg 65%
    09:00 +13°C° 0 mm 3 mps 771 mmHg 59%
    10:00 +14°C° 0 mm 3 mps 771 mmHg 54%
    11:00 +16°C° 0 mm 3 mps 771 mmHg 49%
    12:00 +17°C° 0 mm 3 mps 771 mmHg 44%
    13:00 +18°C° 0 mm 3 mps 770 mmHg 44%
    14:00 +18°C° 0 mm 3 mps 770 mmHg 44%
    15:00 +19°C° 0 mm 3 mps 770 mmHg 43%
    16:00 +18°C° 0 mm 3 mps 770 mmHg 48%
    17:00 +16°C° 0 mm 2 mps 770 mmHg 53%
    18:00 +15°C° 0 mm 2 mps 770 mmHg 57%
    19:00 +15°C° 0 mm 2 mps 770 mmHg 60%
    20:00 +14°C° 0 mm 1 mps 771 mmHg 63%
    21:00 +13°C° 0 mm 1 mps 771 mmHg 66%
    22:00 +13°C° 0 mm 1 mps 771 mmHg 69%
    23:00 +11°C° 0 mm 0 mps 771 mmHg 71%

    Day after tomorrow, 19 September, Thursday

    Time Temperature Precipitation Wind Pressure Humidity
    00:00 +11°C° 0 mm 0 mps 771 mmHg 73%
    01:00 +11°C° 0 mm 0 mps 771 mmHg 74%
    02:00 +11°C° 0 mm 0 mps 771 mmHg 75%
    03:00 +11°C° 0 mm 0 mps 771 mmHg 76%
    04:00 +11°C° 0 mm 0 mps 771 mmHg 76%
    05:00 +11°C° 0 mm 0 mps 771 mmHg 76%
    06:00 +10°C° 0 mm 0 mps 771 mmHg 76%
    07:00 +13°C° 0 mm 1 mps 772 mmHg 70%
    08:00 +15°C° 0 mm 1 mps 772 mmHg 65%
    09:00 +16°C° 0 mm 1 mps 772 mmHg 59%
    10:00 +18°C° 0 mm 1 mps 772 mmHg 56%
    11:00 +20°C° 0 mm 1 mps 772 mmHg 53%
    12:00 +21°C° 0 mm 1 mps 772 mmHg 50%
    13:00 +21°C° 0 mm 1 mps 772 mmHg 49%
    14:00 +20°C° 0 mm 2 mps 771 mmHg 49%
    15:00 +21°C° 0 mm 2 mps 771 mmHg 48%
    16:00 +19°C° 0 mm 2 mps 771 mmHg 53%
    17:00 +18°C° 0 mm 2 mps 771 mmHg 58%
    18:00 +17°C° 0 mm 2 mps 771 mmHg 63%
    19:00 +16°C° 0 mm 2 mps 771 mmHg 67%
    20:00 +15°C° 0 mm 2 mps 771 mmHg 70%
    21:00 +14°C° 0 mm 2 mps 771 mmHg 74%
    22:00 +14°C° 0 mm 2 mps 771 mmHg 76%
    23:00 +14°C° 0 mm 2 mps 771 mmHg 79%

    20 September, Friday

    Time Temperature Precipitation Wind Pressure Humidity
    00:00 +14°C° 0 mm 2 mps 771 mmHg 81%
    01:00 +13°C° 0 mm 1 mps 771 mmHg 83%
    02:00 +13°C° 0 mm 1 mps 771 mmHg 84%
    03:00 +13°C° 0 mm 1 mps 771 mmHg 86%
    04:00 +13°C° 0 mm 1 mps 770 mmHg 86%
    05:00 +13°C° 0 mm 1 mps 770 mmHg 86%
    06:00 +12°C° 0 mm 1 mps 770 mmHg 87%
    07:00 +14°C° 0 mm 2 mps 770 mmHg 78%
    08:00 +14°C° 0 mm 3 mps 770 mmHg 70%
    09:00 +17°C° 0 mm 4 mps 770 mmHg 61%
    10:00 +18°C° 0 mm 4 mps 769 mmHg 56%
    11:00 +19°C° 0 mm 4 mps 769 mmHg 50%
    12:00 +20°C° 0 mm 5 mps 768 mmHg 44%
    13:00 +20°C° 0 mm 5 mps 768 mmHg 43%
    14:00 +20°C° 0 mm 5 mps 767 mmHg 42%
    15:00 +20°C° 0 mm 5 mps 766 mmHg 41%
    16:00 +19°C° 0 mm 5 mps 766 mmHg 46%
    17:00 +17°C° 0 mm 5 mps 765 mmHg 51%
    18:00 +15°C° 0 mm 5 mps 765 mmHg 56%
    19:00 +15°C° 0 mm 5 mps 765 mmHg 57%
    20:00 +15°C° 0 mm 4 mps 764 mmHg 58%
    21:00 +15°C° 0 mm 4 mps 764 mmHg 60%
    22:00 +14°C° 0 mm 4 mps 764 mmHg 59%
    23:00 +14°C° 0 mm 4 mps 763 mmHg 59%

    21 September, Saturday

    Time Temperature Precipitation Wind Pressure Humidity
    00:00 +14°C° 0 mm 4 mps 763 mmHg 59%
    01:00 +14°C° 0 mm 4 mps 762 mmHg 60%
    02:00 +13°C° 0 mm 4 mps 762 mmHg 60%
    03:00 +13°C° 0 mm 4 mps 761 mmHg 60%
    04:00 +12°C° 0 mm 4 mps 761 mmHg 63%
    05:00 +12°C° 0 mm 4 mps 760 mmHg 65%
    06:00 +11°C° 0 mm 4 mps 760 mmHg 68%
    07:00 +13°C° 0 mm 4 mps 759 mmHg 64%
    08:00 +14°C° 0 mm 4 mps 759 mmHg 60%
    09:00 +16°C° 0 mm 5 mps 759 mmHg 56%
    10:00 +19°C° 0 mm 5 mps 759 mmHg 53%
    11:00 +20°C° 0 mm 5 mps 758 mmHg 49%
    12:00 +22°C° 0 mm 5 mps 758 mmHg 46%
    13:00 +22°C° 0 mm 5 mps 757 mmHg 47%
    14:00 +23°C° 0 mm 5 mps 756 mmHg 48%
    15:00 +23°C° 0 mm 5 mps 756 mmHg 50%
    16:00 +23°C° 0 mm 4 mps 755 mmHg 54%
    17:00 +22°C° 0 mm 4 mps 755 mmHg 58%
    18:00 +21°C° 0 mm 3 mps 755 mmHg 62%
    19:00 +21°C° 0.3 mm 4 mps 755 mmHg 67%
    20:00 +20°C° 0.3 mm 4 mps 755 mmHg 73%
    21:00 +20°C° 0.3 mm 4 mps 755 mmHg 78%
    22:00 +20°C° 0.1 mm 4 mps 755 mmHg 79%
    23:00 +19°C° 0.1 mm 4 mps 755 mmHg 80%

    22 September, Sunday

    Time Temperature Precipitation Wind Pressure Humidity
    00:00 +19°C° 0.1 mm 4 mps 755 mmHg 81%
    01:00 +18°C° 0 mm 4 mps 755 mmHg 84%
    02:00 +18°C° 0 mm 4 mps 755 mmHg 87%
    03:00 +17°C° 0 mm 3 mps 755 mmHg 90%
    04:00 +17°C° 0 mm 4 mps 755 mmHg 90%
    05:00 +17°C° 0 mm 4 mps 755 mmHg 91%
    06:00 +18°C° 0 mm 4 mps 755 mmHg 91%
    07:00 +17°C° 0.1 mm 5 mps 755 mmHg 87%
    08:00 +19°C° 0.1 mm 5 mps 755 mmHg 84%
    09:00 +20°C° 0.1 mm 6 mps 755 mmHg 80%
    10:00 +20°C° 0.4 mm 6 mps 755 mmHg 78%
    11:00 +20°C° 0.4 mm 6 mps 756 mmHg 76%
    12:00 +20°C° 0.4 mm 5 mps 756 mmHg 74%
    13:00 +20°C° 0 mm 5 mps 756 mmHg 67%
    14:00 +21°C° 0 mm 5 mps 756 mmHg 61%
    15:00 +21°C° 0 mm 5 mps 757 mmHg 55%
    16:00 +20°C° 0 mm 5 mps 757 mmHg 57%
    17:00 +19°C° 0 mm 4 mps 758 mmHg 58%
    18:00 +18°C° 0 mm 4 mps 758 mmHg 60%
    19:00 +17°C° 0 mm 4 mps 759 mmHg 64%
    20:00 +15°C° 0 mm 4 mps 759 mmHg 68%
    21:00 +15°C° 0 mm 4 mps 760 mmHg 72%
    22:00 +14°C° 0 mm 3 mps 760 mmHg 76%
    23:00 +14°C° 0 mm 3 mps 761 mmHg 79%
    Show more